Tracking 19149 objects as of 22-Apr-2018
HD Live streaming from Space Station
objects crossing your sky now

YAOGAN 9B DEB

Track YAOGAN 9B DEB now!
10-day predictions


NORAD ID: 38303
Int'l Code: 2010-009G
Perigee: 819.7 km
Apogee: 1,287.1 km
Inclination: 63.4 °
Period: 106.1 minutes
Semi major axis: 7424 km
RCS: 0.007 m2 (small)
Launch date: March 5, 2010
Source: People's Republic of China (PRC)
Launch site: Jiuquan Satellite Launch Center, China (JSC)

Note: This is SATELLITE DEBRIS
aabbcc
Your satellite tracking list
Your tracking list is empty




NASA's NSSDC Master Catalog

Two Line Element Set (TLE):
1 38303U 10009G   18111.09194053 +.00000545 +00000-0 +64973-3 0  9996
2 38303 063.3987 355.2298 0314777 006.9934 353.5337 13.57096460172122
Source of the keplerian elements: AFSPC